Location: Góry Miechowskie
(50.3599°N, 20.1803°E)
Time: 13:02:03
(UTC+00:00)

Vanguard 1 Rocket - Pass Details

Date: 18 September 2024
Orbit: 650 x 4218 km, 34.3° (Epoch: 12 October)

Event Time Altitude Azimuth Distance (km) Brightness Sun altitude
Rises 23:48:09 0° 190° (S) 4,849 - -35.5°
Reaches altitude 10° 23:52:03 10° 175° (S) 4,365 - -35.2°
Exits shadow 23:57:56 20° 145° (SE) 4,304 10.5 -34.8°
Maximum altitude 00:00:35 21° 132° (SE) 4,521 10.7 -34.6°
Drops below altitude 10° 00:12:49 10° 93° (E) 6,531 12.0 -33.7°
Sets 00:20:48 0° 81° (E) 8,070 12.7 -33.1°
